When you browse on this site, cookies collect data to enhance your experience and personalize the content and advertising you see.
Visit our Privacy Policy to learn more. By continuing to use the site, you agree to this use of cookies and data.
  • In Österreich
  • Länderverzeichnis
  • Für 7 Tage
  • Wassertemperatur
  • Wetterkarte
  • News
  • Widgets
  • user-avatar
    Anmelden

    Stündliche Wetter Orlyaki

    Heute, 23 Februar, Sonntag

    Zeit Temperatur Niederschläge Wind Luftdruck Luftfeuchtigkeit
    00:00 -1°C° 0.6 mm 9 m/S 737 mmHg 93%
    01:00 0°C° 0.6 mm 9 m/S 736 mmHg 91%
    02:00 0°C° 0.6 mm 8 m/S 736 mmHg 88%
    03:00 0°C° 0.6 mm 7 m/S 735 mmHg 89%
    04:00 0°C° 0.6 mm 7 m/S 734 mmHg 90%
    05:00 +1°C° 0.6 mm 6 m/S 734 mmHg 90%
    06:00 +1°C° 0.3 mm 6 m/S 734 mmHg 88%
    07:00 +1°C° 0.3 mm 6 m/S 734 mmHg 85%
    08:00 -1°C° 0.3 mm 6 m/S 734 mmHg 82%
    09:00 +1°C° 0.1 mm 6 m/S 734 mmHg 78%
    10:00 +1°C° 0.1 mm 6 m/S 734 mmHg 74%
    11:00 +2°C° 0.1 mm 7 m/S 734 mmHg 70%
    12:00 +2°C° 0.1 mm 7 m/S 734 mmHg 69%
    13:00 +2°C° 0.1 mm 7 m/S 734 mmHg 68%
    14:00 +2°C° 0.1 mm 7 m/S 734 mmHg 68%
    15:00 +2°C° 0 mm 6 m/S 734 mmHg 70%
    16:00 +1°C° 0 mm 6 m/S 733 mmHg 73%
    17:00 +1°C° 0 mm 6 m/S 733 mmHg 76%
    18:00 0°C° 0 mm 5 m/S 733 mmHg 77%
    19:00 0°C° 0 mm 5 m/S 733 mmHg 78%
    20:00 0°C° 0 mm 5 m/S 733 mmHg 79%
    21:00 -1°C° 0 mm 5 m/S 732 mmHg 81%
    22:00 -1°C° 0 mm 5 m/S 732 mmHg 82%
    23:00 -1°C° 0 mm 5 m/S 732 mmHg 83%

    Morgen, 24 Februar, Montag

    Zeit Temperatur Niederschläge Wind Luftdruck Luftfeuchtigkeit
    00:00 -1°C° 0 mm 4 m/S 731 mmHg 85%
    01:00 -1°C° 0 mm 4 m/S 731 mmHg 88%
    02:00 -1°C° 0 mm 4 m/S 731 mmHg 90%
    03:00 -1°C° 0 mm 4 m/S 731 mmHg 91%
    04:00 -1°C° 0 mm 4 m/S 731 mmHg 92%
    05:00 0°C° 0 mm 3 m/S 731 mmHg 92%
    06:00 0°C° 0 mm 3 m/S 731 mmHg 92%
    07:00 0°C° 0 mm 3 m/S 731 mmHg 92%
    08:00 0°C° 0 mm 3 m/S 732 mmHg 91%
    09:00 -1°C° 0 mm 4 m/S 732 mmHg 84%
    10:00 0°C° 0 mm 4 m/S 733 mmHg 77%
    11:00 +1°C° 0 mm 4 m/S 733 mmHg 70%
    12:00 +1°C° 0.1 mm 5 m/S 733 mmHg 69%
    13:00 +1°C° 0.1 mm 5 m/S 734 mmHg 69%
    14:00 +1°C° 0.1 mm 6 m/S 735 mmHg 68%
    15:00 0°C° 0 mm 5 m/S 735 mmHg 67%
    16:00 0°C° 0 mm 5 m/S 736 mmHg 66%
    17:00 -1°C° 0 mm 4 m/S 736 mmHg 65%
    18:00 -2°C° 0 mm 4 m/S 737 mmHg 67%
    19:00 -2°C° 0 mm 4 m/S 738 mmHg 69%
    20:00 -2°C° 0 mm 4 m/S 739 mmHg 70%
    21:00 -2°C° 0 mm 3 m/S 739 mmHg 72%
    22:00 -2°C° 0 mm 3 m/S 740 mmHg 74%
    23:00 -2°C° 0 mm 3 m/S 740 mmHg 76%

    übermorgen, 25 Februar, Dienstag

    Zeit Temperatur Niederschläge Wind Luftdruck Luftfeuchtigkeit
    00:00 -2°C° 0 mm 3 m/S 740 mmHg 77%
    01:00 -2°C° 0 mm 3 m/S 741 mmHg 79%
    02:00 -2°C° 0 mm 3 m/S 741 mmHg 80%
    03:00 -4°C° 0 mm 3 m/S 741 mmHg 81%
    04:00 -4°C° 0 mm 3 m/S 740 mmHg 81%
    05:00 -3°C° 0 mm 2 m/S 740 mmHg 81%
    06:00 -3°C° 0 mm 2 m/S 740 mmHg 81%
    07:00 -3°C° 0 mm 2 m/S 740 mmHg 81%
    08:00 -3°C° 0 mm 2 m/S 740 mmHg 80%
    09:00 -2°C° 0 mm 3 m/S 740 mmHg 73%
    10:00 -1°C° 0 mm 3 m/S 739 mmHg 66%
    11:00 0°C° 0 mm 3 m/S 739 mmHg 59%
    12:00 +1°C° 0 mm 3 m/S 738 mmHg 58%
    13:00 0°C° 0 mm 4 m/S 738 mmHg 58%
    14:00 +1°C° 0 mm 4 m/S 738 mmHg 57%
    15:00 0°C° 0 mm 4 m/S 737 mmHg 69%
    16:00 -1°C° 0 mm 4 m/S 736 mmHg 80%
    17:00 -1°C° 0 mm 4 m/S 736 mmHg 92%
    18:00 -1°C° 0.2 mm 4 m/S 735 mmHg 93%
    19:00 -1°C° 0.2 mm 4 m/S 734 mmHg 95%
    20:00 -1°C° 0.2 mm 4 m/S 734 mmHg 96%
    21:00 -1°C° 0.2 mm 4 m/S 733 mmHg 96%
    22:00 -1°C° 0.2 mm 4 m/S 733 mmHg 96%
    23:00 -1°C° 0.2 mm 4 m/S 732 mmHg 97%

    26 Februar, Mittwoch

    Zeit Temperatur Niederschläge Wind Luftdruck Luftfeuchtigkeit
    00:00 0°C° 0.3 mm 4 m/S 732 mmHg 96%
    01:00 0°C° 0.3 mm 4 m/S 732 mmHg 96%
    02:00 +1°C° 0.3 mm 4 m/S 731 mmHg 95%
    03:00 +1°C° 0.1 mm 3 m/S 731 mmHg 95%
    04:00 +1°C° 0.1 mm 3 m/S 731 mmHg 95%
    05:00 +2°C° 0.1 mm 2 m/S 731 mmHg 95%
    06:00 0°C° 0.4 mm 3 m/S 731 mmHg 95%
    07:00 0°C° 0.4 mm 3 m/S 731 mmHg 95%
    08:00 0°C° 0.4 mm 3 m/S 731 mmHg 96%
    09:00 +1°C° 0 mm 3 m/S 732 mmHg 92%
    10:00 +1°C° 0 mm 3 m/S 732 mmHg 88%
    11:00 0°C° 0 mm 4 m/S 732 mmHg 85%
    12:00 +1°C° 0 mm 4 m/S 732 mmHg 81%
    13:00 +1°C° 0 mm 4 m/S 733 mmHg 77%
    14:00 +3°C° 0 mm 4 m/S 733 mmHg 74%
    15:00 +2°C° 0 mm 3 m/S 733 mmHg 76%
    16:00 +3°C° 0 mm 2 m/S 733 mmHg 79%
    17:00 +3°C° 0 mm 1 m/S 733 mmHg 82%
    18:00 +2°C° 0 mm 1 m/S 734 mmHg 83%
    19:00 +2°C° 0 mm 1 m/S 734 mmHg 84%
    20:00 +2°C° 0 mm 1 m/S 735 mmHg 85%
    21:00 +2°C° 0 mm 1 m/S 735 mmHg 85%
    22:00 +2°C° 0 mm 1 m/S 735 mmHg 86%
    23:00 +1°C° 0 mm 2 m/S 735 mmHg 86%

    27 Februar, Donnerstag

    Zeit Temperatur Niederschläge Wind Luftdruck Luftfeuchtigkeit
    00:00 +1°C° 0 mm 2 m/S 735 mmHg 86%
    01:00 +2°C° 0 mm 1 m/S 735 mmHg 87%
    02:00 +2°C° 0 mm 1 m/S 735 mmHg 87%
    03:00 +2°C° 0 mm 1 m/S 735 mmHg 88%
    04:00 +1°C° 0 mm 1 m/S 735 mmHg 90%
    05:00 +1°C° 0 mm 1 m/S 735 mmHg 91%
    06:00 +2°C° 0 mm 1 m/S 735 mmHg 90%
    07:00 +2°C° 0 mm 1 m/S 735 mmHg 90%
    08:00 +2°C° 0 mm 1 m/S 735 mmHg 89%
    09:00 +2°C° 0 mm 1 m/S 735 mmHg 89%
    10:00 +2°C° 0 mm 2 m/S 735 mmHg 88%
    11:00 +2°C° 0 mm 2 m/S 735 mmHg 88%
    12:00 +2°C° 0 mm 2 m/S 735 mmHg 89%
    13:00 +2°C° 0 mm 2 m/S 735 mmHg 91%
    14:00 +2°C° 0 mm 2 m/S 735 mmHg 92%
    15:00 +2°C° 0 mm 2 m/S 735 mmHg 93%
    16:00 +2°C° 0 mm 1 m/S 736 mmHg 94%
    17:00 +2°C° 0 mm 1 m/S 736 mmHg 95%
    18:00 +2°C° 0 mm 1 m/S 736 mmHg 95%
    19:00 +2°C° 0 mm 1 m/S 737 mmHg 94%
    20:00 +1°C° 0 mm 1 m/S 737 mmHg 94%
    21:00 +1°C° 0.2 mm 1 m/S 737 mmHg 95%
    22:00 -1°C° 0.2 mm 2 m/S 738 mmHg 95%
    23:00 -1°C° 0.2 mm 3 m/S 738 mmHg 96%

    28 Februar, Freitag

    Zeit Temperatur Niederschläge Wind Luftdruck Luftfeuchtigkeit
    00:00 -1°C° 0 mm 3 m/S 738 mmHg 93%
    01:00 -1°C° 0 mm 2 m/S 739 mmHg 91%
    02:00 -1°C° 0 mm 2 m/S 739 mmHg 89%
    03:00 -1°C° 0 mm 2 m/S 739 mmHg 89%
    04:00 -1°C° 0 mm 3 m/S 739 mmHg 89%
    05:00 -1°C° 0 mm 3 m/S 740 mmHg 90%
    06:00 -1°C° 0 mm 3 m/S 740 mmHg 87%
    07:00 -1°C° 0 mm 3 m/S 740 mmHg 84%
    08:00 -1°C° 0 mm 3 m/S 741 mmHg 82%
    09:00 -1°C° 0 mm 3 m/S 741 mmHg 78%
    10:00 -1°C° 0 mm 3 m/S 742 mmHg 75%
    11:00 0°C° 0 mm 3 m/S 742 mmHg 72%
    12:00 0°C° 0 mm 3 m/S 742 mmHg 69%
    13:00 0°C° 0 mm 3 m/S 742 mmHg 67%
    14:00 +1°C° 0 mm 3 m/S 742 mmHg 64%
    15:00 0°C° 0 mm 3 m/S 742 mmHg 67%
    16:00 0°C° 0 mm 3 m/S 742 mmHg 71%
    17:00 -1°C° 0 mm 2 m/S 742 mmHg 74%
    18:00 -1°C° 0 mm 3 m/S 741 mmHg 74%
    19:00 -1°C° 0 mm 3 m/S 741 mmHg 74%
    20:00 -2°C° 0 mm 4 m/S 741 mmHg 75%
    21:00 -2°C° 0 mm 5 m/S 740 mmHg 76%
    22:00 -2°C° 0 mm 5 m/S 740 mmHg 77%
    23:00 -2°C° 0 mm 5 m/S 740 mmHg 78%
    Mehr zeigen